Showing default

INMARSAT 6-F2, 55683

Orbit data source: Space-Track

INMARSAT 6-F2, 55683 is a payload satellite owned by INMARSAT-Ltd (UK) in HEO that was launched on Sat, 18 Feb 2023 UTC via an FALCON 9 launch vehicle from the Air Force Eastern Test Range (AFETR). Payload-class satellites include a variety of spacecraft equipped with specific instruments for various scientific and technological missions. These include communications satellites like Starlink; space stations such as the ISS; scientific satellites like the Hubble; Earth observation satellites from companies like Planet Labs, Umbra, and HawkEye 360; GPS; miniature CubeSats for education and research; and military/defense satellites.

Not visible in the next 10 days
Identifier
55683, 2023-022A
Orbit
HEO
Country
Flag of IMIM
Related business
Manufacturer
Airbus (UK)
Mission
Non-operational Commercial Communications
Bus & Motor
EUROSTAR 3000EOR, SPT140D
Mass
5,470 kg wet, 4,000 kg dry
Launch date (UTC)
2023-02-18 (3 years ago)
Launch vehicle
FALCON 9
Launch site
Air Force Eastern Test Range (AFETR)
Object type
Payload
Rocket body
Debris
Shape & HBR
Box + 1 Dish + 2 Pan, 23.5 m
Radar Cross Section
55.453 m², Large (>1 m²)

Expand to show TLE details & history
Last TLE update: 21 hours ago

TLE from 21 hours ago
0 INMARSAT 6-F2
1 55683U 23022A   25340.79664753 -.00000227  00000-0  00000-0 0  9999
2 55683   5.0388  35.1474 3073702 213.0062 186.1853  1.00960874  8615
Epoch: 2025-12-06T19:07Z
TLE epoch observation values (Epoch: 2025-12-06T19:07:10.346Z)
Latitude
3.01559°
Longitude
68.8967°
Altitude
48,513.734 km
Speed
2.242 km/s
True Right ascension
04h 46m 02s
True Declination
3° 00' 48"
Sunlit
Object was in daylight at epoch
Visualization orbit readout
Latitude
Unknown
Longitude
Unknown
Altitude
Unknown
Speed
Unknown
Apparent Right ascension
Unknown
Apparent Declination
Unknown
Sunlit
N/A
Visualization observer readout
Local Sidereal Time
14:25:47
Azimuth
Unknown
Elevation
Unknown
Doppler factor
Unknown
Orbital elements
Apogee altitude
48,497.268 km
Perigee altitude
22,694.226 km
Semi-major axis
41,973.884 km
Eccentricity
0.30737
Inclination
5.0388°
RAAN
35.1474°
Arg. of periapsis
213.0062°
True anomaly
183.44545°
Mean anomaly
186.1853°
Eccentric anomaly
184.73237°
Mean motion
0.25239 °/min
Orbital period
1,426.36 mins
BSTAR
0
Loading maneuver chart data...
Computing Atmospheric mass density...
Loading historical data...
Loading historical data...
Loading historical data...
Loading historical data...
Loading historical data...
Loading historical data...
Loading historical data...
Other satellites on launch #22 in the year 2023 (2023-02-18 UTC)

Documentation

Showing up to 5 results
|